Regional Weather Roundup
Issued by NWS State College, PA

Home | Current Version | Previous Version | Text Only | Print | Product List | Glossary Off
Versions: 1 2 3 4 5 6 7 8 9 10 11 12 13 14 15 16 17 18 19 20 21 22 23 24 25 26 27 28 29 30 31 32 33 34 35 36 37 38 39 40 41 42 43 44 45 46 47 48 49 50

000
ASUS41 KCTP 260110
RWRCTP

REGIONAL WEATHER ROUNDUP
NATIONAL WEATHER SERVICE STATE COLLEGE PA
900 PM EDT TUE APR 25 2017

Note: "fair" indicates few or no clouds below 12,000 feet with no
significant weather and/or obstructions to visibility.

* = STATION THAT DOES NOT REPORT PRECIPITATION /E.G. RAIN...SNOW...ETC/
    THUNDER OR FOG.

PAZ002>004-007>009-013>016-020>023-029>032-260200-
WESTERN PENNSYLVANIA

CITY           SKY/WX    TMP DP  RH WIND       PRES   REMARKS
ERIE           CLOUDY    61  53  75 N3        29.80S
MEADVILLE      CLOUDY    61  54  77 VRB5      29.82S
FRANKLIN*      CLOUDY    55  52  88 E7        29.84S
NEW CASTLE     CLOUDY    59  55  87 E5        29.82S
BEAVER COUNTY  CLOUDY    57  54  88 SE5       29.81S
BUTLER*        CLOUDY    55  54  94 E8        29.83S
PITTSBURGH INT CLOUDY    57  55  93 E10       29.80S
PITTSBURGH     CLOUDY    56  51  84 E7        29.80F
INDIANA*       CLOUDY    55  54  94 VRB5      29.85S
LATROBE        MOCLDY    57  55  94 E5        29.82F
WASHINGTON CO* CLOUDY    55  52  88 E6        29.82R
$$

PAZ004>006-010>012-017>019-024>028-033>037-041-042-045-046-049>053-260200-
CENTRAL PENNSYLVANIA

CITY           SKY/WX    TMP DP  RH WIND       PRES   REMARKS
BRADFORD       LGT RAIN  55  53  93 E7        29.86S
DUBOIS         CLOUDY    54  52  93 E5        29.83S FOG
CLEARFIELD     CLOUDY    54  54 100 E8        29.85R
JOHNSTOWN      FOG       52  52 100 NE6       29.81S VSB 3/4
ALTOONA        CLOUDY    55  54  96 NE8       29.82F
STATE COLLEGE  CLOUDY    54  54 100 NE9       29.84S FOG
WILLIAMSPORT   LGT RAIN  57  55  93 W3        29.84S
SELINSGROVE    CLOUDY    56  54  93 N6        29.83F
FT INDIANTOWN  CLOUDY    57  57 100 E14G31    29.80F
CAPITAL CITY   LGT RAIN  57  54  89 NE9       29.80F FOG
HARRISBURG     LGT RAIN  56  55  97 NE8       29.79F FOG
YORK           CLOUDY    56  56 100 NE9       29.78S FOG
$$

PAZ038>040-043-044-047-048-054-055-060>062-067>071-260200-
EASTERN PENNSYLVANIA

CITY           SKY/WX    TMP DP  RH WIND       PRES   REMARKS
SCRANTON       CLOUDY    55  50  83 NE12G23   29.86F
MOUNT POCONO   LGT RAIN  49  49 100 E17       29.89S
ALLENTOWN      LGT RAIN  56  52  86 NE14      29.86S FOG
QUAKERTOWN*    CLOUDY    55  55 100 NE12G17   29.85S
READING        CLOUDY    57  55  93 E13G21    29.81S
LANCASTER      CLOUDY    57  56  96 E13       29.79S
COATESVILLE    LGT RAIN  55  55 100 NE8G16    29.81S
POTTSTOWN      LGT RAIN  54  53  97 NE14G22   29.83S
BLUE BELL      CLOUDY    54  54 100 NE12G20   29.83S
DOYLESTOWN     LGT RAIN  53  53 100 NE9       29.83F
WILLOW GROVE   NOT AVBL
NORTH PHILA    CLOUDY    56  54  93 NE15      29.83S
PHILADELPHIA   CLOUDY    56  54  93 NE16G26   29.79S FOG
$$




USA.gov is the U.S. government's official web portal to all federal, state and local government web resources and services.